{"data":{"norad_id":49137,"epoch":"2026-05-25T02:17:03.327360Z","epoch_age_seconds":56979,"freshness":"FRESH","line1":"1 49137U 21082H   26145.09517740 -.00001093  00000+0 -85614-4 0  9990","line2":"2 49137  70.0001  82.8409 0003002 264.3085  95.7731 14.97521155257891","mean_motion":14.97521155,"eccentricity":0.0003002,"inclination_deg":70.0001,"raan_deg":82.8409,"arg_perigee_deg":264.3085,"mean_anomaly_deg":95.7731,"bstar":-8.5614e-5,"rev_number":25789,"period_min":96.158908686669,"perigee_km":572.4711040219,"apogee_km":576.64550228192,"semimajor_km":6952.6953031519,"source":"CELESTRAK","updated_at":"2026-05-25T13:38:16.765631Z"}}